TimeEST,TemperatureF,Dew PointF,Humidity,Sea Level PressureIn,VisibilityMPH,Wind Direction,Wind SpeedMPH,Gust SpeedMPH,PrecipitationIn,Events,Conditions,WindDirDegrees,DateUTC
12:15 AM,45.1,34.3,66,30.15,10.0,NW,15.0,-,N/A,,Clear,320,2014-02-06 05:15:00
12:35 AM,44.6,34.0,66,30.15,10.0,NW,10.4,16.1,N/A,,Clear,320,2014-02-06 05:35:00
12:55 AM,43.9,33.1,66,30.15,10.0,NW,13.8,19.6,N/A,,Clear,320,2014-02-06 05:55:00
1:15 AM,43.2,32.4,66,30.16,10.0,NW,11.5,16.1,N/A,,Clear,320,2014-02-06 06:15:00
1:35 AM,42.8,32.0,66,30.16,10.0,NW,10.4,-,N/A,,Clear,320,2014-02-06 06:35:00
1:55 AM,42.3,31.8,67,30.15,10.0,NW,9.2,16.1,N/A,,Clear,320,2014-02-06 06:55:00
2:15 AM,41.9,31.5,66,30.15,10.0,NNW,9.2,-,N/A,,Clear,330,2014-02-06 07:15:00
2:35 AM,41.9,31.1,66,30.15,10.0,NNW,12.7,-,N/A,,Clear,330,2014-02-06 07:35:00
2:55 AM,41.4,31.5,68,30.16,10.0,NNW,6.9,-,N/A,,Clear,330,2014-02-06 07:55:00
3:15 AM,41.2,31.3,68,30.16,10.0,NW,6.9,-,N/A,,Clear,320,2014-02-06 08:15:00
3:35 AM,41.0,31.1,68,30.17,10.0,NNW,6.9,-,N/A,,Clear,340,2014-02-06 08:35:00
3:55 AM,40.6,31.1,69,30.17,10.0,NNW,8.1,-,N/A,,Clear,330,2014-02-06 08:55:00
4:15 AM,40.5,31.1,69,30.18,10.0,NNW,8.1,-,N/A,,Clear,340,2014-02-06 09:15:00
4:35 AM,40.1,30.9,70,30.18,10.0,NNW,8.1,-,N/A,,Clear,340,2014-02-06 09:35:00
4:55 AM,39.9,30.7,70,30.18,10.0,North,6.9,-,N/A,,Clear,350,2014-02-06 09:55:00
5:15 AM,39.6,30.7,71,30.19,10.0,North,5.8,-,N/A,,Clear,350,2014-02-06 10:15:00
5:35 AM,39.4,30.7,71,30.20,10.0,Calm,Calm,-,N/A,,Clear,0,2014-02-06 10:35:00
5:55 AM,39.2,30.7,72,30.21,10.0,NNW,8.1,-,N/A,,Clear,340,2014-02-06 10:55:00
6:15 AM,38.8,30.7,73,30.22,10.0,Calm,Calm,-,N/A,,Clear,0,2014-02-06 11:15:00
6:35 AM,38.7,30.7,73,30.22,10.0,Calm,Calm,-,N/A,,Clear,0,2014-02-06 11:35:00
6:55 AM,38.3,30.9,75,30.23,10.0,NNW,4.6,-,N/A,,Clear,340,2014-02-06 11:55:00
7:15 AM,38.3,31.1,75,30.23,10.0,Calm,Calm,-,N/A,,Clear,0,2014-02-06 12:15:00
7:35 AM,38.3,31.1,75,30.24,10.0,Calm,Calm,-,N/A,,Clear,0,2014-02-06 12:35:00
7:55 AM,38.7,31.3,75,30.25,10.0,Calm,Calm,-,N/A,,Clear,0,2014-02-06 12:55:00
8:15 AM,39.4,31.6,74,30.26,10.0,Calm,Calm,-,N/A,,Clear,0,2014-02-06 13:15:00
8:35 AM,40.6,31.8,71,30.27,10.0,North,6.9,-,N/A,,Clear,10,2014-02-06 13:35:00
8:55 AM,42.3,32.0,67,30.27,10.0,NNE,8.1,-,N/A,,Clear,20,2014-02-06 13:55:00
9:15 AM,43.9,32.2,63,30.27,10.0,NNE,9.2,-,N/A,,Clear,30,2014-02-06 14:15:00
9:35 AM,45.3,32.0,60,30.28,10.0,NE,9.2,17.3,N/A,,Clear,40,2014-02-06 14:35:00
9:55 AM,46.6,32.0,57,30.28,10.0,NE,9.2,16.1,N/A,,Clear,40,2014-02-06 14:55:00
10:15 AM,47.3,32.0,55,30.28,10.0,NE,10.4,-,N/A,,Clear,40,2014-02-06 15:15:00
10:35 AM,48.2,32.2,54,30.27,10.0,NE,9.2,-,N/A,,Clear,50,2014-02-06 15:35:00
10:55 AM,49.3,32.4,52,30.28,10.0,ENE,4.6,-,N/A,,Clear,60,2014-02-06 15:55:00
11:15 AM,50.2,31.8,49,30.28,10.0,East,3.5,-,N/A,,Clear,80,2014-02-06 16:15:00
11:35 AM,50.5,32.4,50,30.28,10.0,NE,4.6,-,N/A,,Clear,50,2014-02-06 16:35:00
11:55 AM,51.8,32.2,47,30.27,10.0,NNE,6.9,-,N/A,,Clear,20,2014-02-06 16:55:00
12:15 PM,52.2,32.0,46,30.27,10.0,Calm,Calm,-,N/A,,Clear,0,2014-02-06 17:15:00
12:35 PM,53.4,31.8,44,30.26,10.0,ENE,4.6,-,N/A,,Clear,70,2014-02-06 17:35:00
12:55 PM,53.2,31.8,44,30.24,10.0,ENE,8.1,-,N/A,,Clear,60,2014-02-06 17:55:00
1:15 PM,54.0,31.3,42,30.24,10.0,NNE,5.8,-,N/A,,Clear,20,2014-02-06 18:15:00
1:35 PM,55.0,31.3,40,30.22,10.0,Calm,Calm,-,N/A,,Clear,0,2014-02-06 18:35:00
1:55 PM,55.2,32.2,42,30.21,10.0,Calm,Calm,-,N/A,,Clear,0,2014-02-06 18:55:00
2:15 PM,55.8,32.2,41,30.21,10.0,NE,4.6,-,N/A,,Clear,40,2014-02-06 19:15:00
2:35 PM,56.3,32.5,41,30.20,10.0,NNE,5.8,-,N/A,,Clear,30,2014-02-06 19:35:00
2:55 PM,55.8,32.0,41,30.19,10.0,North,5.8,-,N/A,,Scattered Clouds,360,2014-02-06 19:55:00
3:15 PM,55.6,32.5,42,30.20,10.0,NNE,4.6,-,N/A,,Mostly Cloudy,20,2014-02-06 20:15:00
3:35 PM,54.3,32.0,43,30.19,10.0,NE,5.8,-,N/A,,Mostly Cloudy,50,2014-02-06 20:35:00
3:55 PM,53.8,32.4,44,30.19,7.0,NE,4.6,-,N/A,,Mostly Cloudy,50,2014-02-06 20:55:00
4:15 PM,53.8,32.2,44,30.19,10.0,NNE,5.8,-,N/A,,Mostly Cloudy,30,2014-02-06 21:15:00
4:35 PM,53.8,32.4,44,30.20,7.0,Calm,Calm,-,N/A,,Scattered Clouds,0,2014-02-06 21:35:00
4:55 PM,53.2,32.4,45,30.21,10.0,Calm,Calm,-,N/A,,Scattered Clouds,0,2014-02-06 21:55:00
5:15 PM,52.9,33.3,47,30.22,10.0,North,3.5,-,N/A,,Overcast,10,2014-02-06 22:15:00
5:35 PM,52.3,32.5,47,30.24,10.0,North,4.6,-,N/A,,Overcast,350,2014-02-06 22:35:00
5:55 PM,51.8,32.5,48,30.23,10.0,Calm,Calm,-,N/A,,Overcast,0,2014-02-06 22:55:00
6:15 PM,50.9,34.5,54,30.24,10.0,Calm,Calm,-,N/A,Rain,Rain,0,2014-02-06 23:15:00
6:35 PM,49.3,37.6,64,30.25,10.0,Calm,Calm,-,N/A,Rain,Light Rain,0,2014-02-06 23:35:00
6:55 PM,47.7,39.2,72,30.27,10.0,Calm,Calm,-,N/A,Rain,Light Rain,0,2014-02-06 23:55:00
7:15 PM,46.6,40.6,80,30.27,10.0,Calm,Calm,-,N/A,Rain,Rain,0,2014-02-07 00:15:00
7:35 PM,45.9,41.0,83,30.27,10.0,Calm,Calm,-,N/A,Rain,Rain,0,2014-02-07 00:35:00
7:55 PM,45.9,39.9,80,30.29,10.0,Calm,Calm,-,N/A,Rain,Light Rain,0,2014-02-07 00:55:00
8:15 PM,45.9,39.6,79,30.29,10.0,Calm,Calm,-,N/A,,Overcast,0,2014-02-07 01:15:00
8:35 PM,45.7,39.7,80,30.31,7.0,Calm,Calm,-,N/A,Rain,Rain,0,2014-02-07 01:35:00
8:55 PM,45.7,40.3,81,30.32,10.0,Calm,Calm,-,N/A,Rain,Light Rain,0,2014-02-07 01:55:00
9:15 PM,45.7,40.1,81,30.31,10.0,Calm,Calm,-,N/A,Rain,Rain,0,2014-02-07 02:15:00
9:35 PM,45.1,39.2,80,30.32,10.0,Calm,Calm,-,N/A,,Drizzle,0,2014-02-07 02:35:00
9:55 PM,45.0,39.2,80,30.30,10.0,Calm,Calm,-,N/A,,Overcast,0,2014-02-07 02:55:00
10:15 PM,44.6,38.5,79,30.30,10.0,North,5.8,-,N/A,,Overcast,10,2014-02-07 03:15:00
10:35 PM,44.4,37.9,78,30.29,10.0,East,4.6,-,N/A,Rain,Light Rain,90,2014-02-07 03:35:00
10:55 PM,44.1,38.5,81,30.28,10.0,East,3.5,-,N/A,,Drizzle,100,2014-02-07 03:55:00
11:15 PM,43.7,39.2,84,30.29,10.0,NNE,3.5,-,N/A,Rain,Light Rain,30,2014-02-07 04:15:00
11:35 PM,43.5,38.8,84,30.29,10.0,NE,3.5,-,N/A,Rain,Rain,40,2014-02-07 04:35:00
11:55 PM,43.3,38.7,84,30.29,10.0,NE,4.6,-,N/A,,Mostly Cloudy,40,2014-02-07 04:55:00